Location: Demmingen
(48.6757°N, 10.4375°E)
Time: 23:55:21
(UTC+00:00)

Cosmos 1745 Rocket - Pass Details

Date: 08 August 2024
Orbit: 951 x 998 km, 83.0° (Epoch: 08 September)

Event Time Altitude Azimuth Distance (km) Brightness Sun altitude
Rises 01:45:27 0° 357° (N) 3,640 7.8 -18.1°
Reaches altitude 10° 01:48:21 10° 9° (N) 2,690 7.3 -17.8°
Maximum altitude 01:53:35 28° 67° (ENE) 1,699 5.9 -17.3°
Drops below altitude 10° 01:58:47 10° 126° (SE) 2,685 6.3 -16.7°
Sets 02:01:39 0° 137° (SE) 3,633 6.9 -16.4°
